Location: Balaclava NSW 2575, Australia
(34.4510°S, 150.4953°E)
Time: 10:48:46
(UTC+10:00)

X-37B - Pass Details

Date: 06 August 2021
Orbit: 381 x 393 km, 45.0° (Epoch: 29 August)

Event Time Altitude Azimuth Distance (km) Brightness Sun altitude
Rises 18:59:26 0° 237° (WSW) 2,312 5.3 -20.5°
Reaches altitude 10° 19:01:32 10° 234° (SW) 1,449 4.1 -21.0°
Enters shadow 19:03:59 46° 219° (SW) 547 1.5 -21.5°
